Regional Weather Roundup
Issued by NWS

Home | Current Version | Previous Version | Graphics & Text | Print | Product List | Glossary On
Versions: 1 2 3 4 5 6 7 8 9 10 11 12 13 14 15 16 17 18 19 20 21 22 23 24 25 26 27 28 29 30 31 32 33 34 35 36 37 38 39 40 41 42 43 44 45 46 47 48 49 50
000
ASUS43 KFSD 252210
RWRSD

WEATHER ROUNDUP FOR SOUTH DAKOTA
NATIONAL WEATHER SERVICE SIOUX FALLS SD
500 PM CDT TUE JUL 25 2017

NOTE: "FAIR" INDICATES FEW OR NO CLOUDS BELOW 12,000 FEET WITH NO
SIGNIFICANT WEATHER AND/OR OBSTRUCTIONS TO VISIBILITY.


SDZ001>005-009-010-012>017-252300-
NORTHWEST AND NORTH CENTRAL SOUTH DAKOTA

CITY           SKY/WX    TMP DP  RH WIND       PRES   REMARKS
BUFFALO          N/A     83  47  28 NE10      30.01S
FAITH            N/A     84  58  40 NE20G26   30.00R
MOBRIDGE       CLOUDY    84  64  50 N14       29.94R
$$

SDZ012>016-024>037-041>051-057-063-072>074-252300-
SOUTHWEST AND SOUTH CENTRAL SOUTH DAKOTA

CITY           SKY/WX    TMP DP  RH WIND       PRES   REMARKS
RAPID CTY ARPT CLOUDY    86  59  39 NE10      30.02S
PIERRE         CLOUDY    91  66  43 NE13      29.86F
CUSTER         MOSUNNY   76  49  38 NE22G30   30.17F
ELLSWORTH AFB  CLOUDY    85  59  42 NE9       30.03S
PHILIP         CLOUDY    94  62  34 NE20G25   29.90F
PINE RIDGE     MOSUNNY   93  62  35 N21G29    29.94F
SPEARFISH      FAIR      79  59  50 NE9       30.11R
WINNER         LGT RAIN  98  66  34 W9        29.82F HX 101
$$

SDZ004>011-016>023-039-040-252300-
NORTHEAST SOUTH DAKOTA

CITY           SKY/WX    TMP DP  RH WIND       PRES   REMARKS
ABERDEEN       CLOUDY    84  74  71 N12       29.91R
WATERTOWN      CLOUDY    88  73  61 NE8       29.88F HX  95
BROOKINGS      TSTM      76  71  85 NE24G47   29.91R SQUALL
SISSETON         N/A     81  72  74 SE7       29.86F
$$

SDZ017-020-022-023-036>040-048>070-252300-
SOUTHEAST SOUTH DAKOTA

CITY           SKY/WX    TMP DP  RH WIND       PRES   REMARKS
SIOUX FALLS    CLOUDY    95  65  37 S21G31    29.83F HX  97
HURON          CLOUDY    88  75  65 NE17      29.81F HX  97
CHAMBERLAIN    CLOUDY   101  65  30 SE7G20    29.81R HX 104
MITCHELL       TSTM      79  73  82 NW17G39   29.85R
YANKTON        MOSUNNY   96  58  27 S24G31    29.84F HX  95
$$

ABBREVIATIONS USED IN REMARKS
   TC - TEMPERATURE IN CELSIUS
  WCI - WIND CHILL INDEX
   HX - HEAT INDEX
  VSB - VISIBILITY





USA.gov is the U.S. government's official web portal to all federal, state and local government web resources and services.